This demonstration page uses our WeatherBlox Daily Observations layout. Learn more.

Left ArrowRight Arrow

44.8408, -93.29828

Hourly Observations for September 27, 2017

Temp ( °F °C ) Dew Point ( °F °C ) Humidity (%) Winds ( mph kmh ) Pressure ( in mb ) Visibility ( mi km ) Precip ( " mm )
12:53 am 00:53 Mostly Clear 53 11.7 50 10 89 89 W 8 13 30.12 1020 10 16 0.00 0.00
1:53 am 01:53 Mostly Clear 52 11.1 49 9.4 89 89 WNW 7 11 30.13 1020 10 16 0.00 0.00
2:53 am 02:53 Clear 52 11.1 50 10 93 93 WNW 6 9 30.14 1021 10 16 0.00 0.00
3:53 am 03:53 Mostly Clear 51 10.6 49 9.4 92 92 W 6 9 30.15 1021 10 16 0.00 0.00
4:53 am 04:53 Mostly Clear 51 10.6 48 8.9 89 89 W 7 11 30.16 1021 10 16 0.00 0.00
5:53 am 05:53 Mostly Clear 49 9.4 47 8.3 93 93 WNW 7 11 30.17 1022 10 16 0.00 0.00
6:53 am 06:53 Mostly Clear 48 8.9 47 8.3 96 96 WNW 7 11 30.19 1022 10 16 0.00 0.00
7:53 am 07:53 Mostly Sunny 49 9.4 47 8.3 93 93 WNW 6 9 30.21 1023 10 16 0.00 0.00
8:53 am 08:53 Partly Cloudy 51 10.6 47 8.3 86 86 WNW 10 17 30.23 1024 10 16 0.00 0.00
9:53 am 09:53 Mostly Sunny 54 12.2 46 7.8 75 75 NW 7 11 30.23 1024 10 16 0.00 0.00
10:53 am 10:53 Mostly Sunny 57 13.9 46 7.8 67 67 NW 8 13 30.24 1024 10 16 0.00 0.00
11:53 am 11:53 Sunny 61 16.1 44 6.7 54 54 NW 6 9 30.23 1024 10 16 0.00 0.00
12:53 pm 12:53 Mostly Sunny 63 17.2 46 7.8 54 54 VRB 5 7 30.22 1023 10 16 0.00 0.00
1:53 pm 13:53 Partly Cloudy 65 18.3 46 7.8 51 51 W 12 19 30.21 1023 10 16 0.00 0.00
2:53 pm 14:53 Mostly Cloudy 63 17.2 45 7.2 52 52 W 13 20 30.20 1023 10 16 0.00 0.00
3:53 pm 15:53 Partly Cloudy 63 17.2 45 7.2 52 52 NW 9 15 30.19 1022 10 16 0.00 0.00
4:53 pm 16:53 Mostly Sunny 65 18.3 45 7.2 49 49 NW 9 15 30.18 1022 10 16 0.00 0.00
5:53 pm 17:53 Mostly Sunny 64 17.8 44 6.7 48 48 W 10 17 30.18 1022 10 16 0.00 0.00
6:53 pm 18:53 Sunny 62 16.7 45 7.2 54 54 W 7 11 30.19 1022 10 16 0.00 0.00
7:53 pm 19:53 Clear 60 15.6 46 7.8 60 60 WNW 3 6 30.19 1022 10 16 0.00 0.00
8:53 pm 20:53 Clear 60 15.6 47 8.3 62 62 WSW 5 7 30.19 1023 10 16 0.00 0.00
9:53 pm 21:53 Clear 58 14.4 47 8.3 67 67 WSW 3 6 30.19 1022 10 16 0.00 0.00
10:53 pm 22:53 Clear 57 13.9 47 8.3 69 69 Calm 30.19 1022 10 16 0.00 0.00
11:53 pm 23:53 Clear 55 12.8 48 8.9 77 77 SSW 6 9 30.18 1022 10 16 0.00 0.00

Powered by AerisWeather